CW1172 Weather Reports


time (UTC)temp
F
wind
direction
speed
knots
gust
knots
rain 1hr
in
rain 24hr
in
rain mn
in
humidity
%
barometer
mb
20260509221516 40 128 0.0 0.0 0.00 0.00 0.00 71 1017.7
20260509220023 40 128 0.0 0.0 0.00 0.00 0.00 70 1017.8
20260509214512 41 126 0.0 0.0 0.00 0.00 0.00 70 1018.0
20260509211513 42 116 0.0 0.0 0.00 0.00 0.00 69 1018.2
20260509210011 43 360 0.0 0.0 0.00 0.00 0.00 67 1018.5
20260509204510 44 301 0.0 0.0 0.00 0.00 0.00 66 1018.6
20260509201513 45 360 0.0 0.0 0.00 0.00 0.00 63 1018.7
20260509200011 47 300 0.0 0.0 0.00 0.00 0.00 61 1018.6
20260509194513 49 300 0.0 0.0 0.00 0.00 0.00 57 1018.7
20260509191513 52 360 0.0 0.0 0.00 0.00 0.00 50 1018.8
20260509190014 53 360 0.0 0.0 0.00 0.00 0.00 46 1018.8
20260509184507 53 301 0.0 0.0 0.00 0.00 0.00 44 1018.9
20260509181506 56 300 0.0 0.0 0.00 0.00 0.00 44 1018.9
20260509180008 57 281 0.0 0.0 0.00 0.00 0.00 42 1018.9
20260509174505 57 309 0.0 0.0 0.00 0.00 0.00 42 1018.9
20260509171505 61 259 0.0 0.0 0.00 0.00 0.00 38 1019.2
20260509170009 61 360 0.0 0.0 0.00 0.00 0.00 35 1019.1
20260509164503 62 360 0.0 0.0 0.00 0.00 0.00 36 1019.2
20260509161502 62 286 0.0 0.0 0.00 0.00 0.00 34 1019.5
20260509160001 63 360 0.0 0.0 0.00 0.00 0.00 34 1019.5
20260509154614 63 312 0.0 0.0 0.00 0.00 0.00 34 1019.7
20260509151558 61 253 0.0 0.0 0.00 0.00 0.00 39 1020.1
20260509150057 61 304 0.0 0.0 0.00 0.00 0.00 36 1020.2
20260509144600 62 360 0.0 0.0 0.00 0.00 0.00 38 1020.3
20260509141554 62 281 0.0 0.0 0.00 0.00 0.00 39 1020.5
20260509134552 62 360 0.0 0.0 0.00 0.00 0.00 38 1020.7
20260509131551 63 232 0.0 0.0 0.00 0.00 0.00 38 1021.1
20260509130051 64 285 0.0 0.0 0.00 0.00 0.00 38 1021.2
20260509124550 64 307 0.0 0.0 0.00 0.00 0.00 38 1021.3
20260509121547 65 269 0.0 0.0 0.00 0.00 0.00 40 1021.6
20260509120058 64 360 0.0 0.0 0.00 0.00 0.00 41 1021.7
20260509114543 64 319 0.0 0.0 0.00 0.00 0.00 41 1021.9
20260509111544 64 324 0.0 0.0 0.00 0.00 0.00 40 1022.1
20260509110045 64 315 0.0 0.0 0.00 0.00 0.00 40 1022.4
20260509104540 63 246 0.0 0.0 0.00 0.00 0.00 39 1022.7
20260509101550 62 284 0.0 0.0 0.00 0.00 0.00 41 1022.9
20260509100043 62 360 0.0 0.0 0.00 0.00 0.00 42 1023.1
20260509094536 63 245 0.0 0.0 0.00 0.00 0.00 41 1023.1
20260509091536 62 311 0.0 0.0 0.00 0.00 0.00 44 1023.3
20260509090041 62 286 0.0 0.0 0.00 0.00 0.00 47 1023.2
20260509084538 62 42 0.0 0.0 0.00 0.00 0.00 50 1023.2
20260509081527 59 280 0.0 0.0 0.00 0.00 0.00 55 1023.3
20260509080027 59 256 0.0 0.0 0.00 0.00 0.00 53 1023.3
20260509074525 60 360 0.0 0.0 0.00 0.00 0.00 55 1023.4
20260509071532 59 248 0.0 0.0 0.00 0.00 0.00 61 1023.5
20260509070026 58 360 0.0 0.0 0.00 0.00 0.00 65 1023.5
20260509064523 57 360 0.0 0.0 0.00 0.00 0.00 67 1023.6
20260509061511 55 360 0.0 0.0 0.00 0.00 0.00 74 1023.5
20260509060013 53 186 0.0 0.0 0.00 0.00 0.00 79 1023.5
20260509054504 51 157 0.0 0.0 0.00 0.00 0.00 80 1023.5
20260509051558 45 147 0.0 0.0 0.00 0.00 0.00 86 1023.5
20260509050059 42 146 0.0 0.0 0.00 0.00 0.00 85 1023.4
20260509044556 41 146 0.0 0.0 0.00 0.00 0.00 84 1023.4
20260509041557 38 146 0.0 0.0 0.00 0.00 0.00 84 1023.3
20260509040125 38 147 0.0 0.0 0.00 0.00 0.00 84 1023.3
20260509034600 38 146 0.0 0.0 0.00 0.00 0.00 84 1023.4
20260509031558 38 146 0.0 0.0 0.00 0.00 0.00 83 1023.6
20260509030051 38 148 0.0 0.0 0.00 0.00 0.00 83 1023.5
20260509024550 39 148 0.0 0.0 0.00 0.00 0.00 82 1023.6
20260509021547 40 148 0.0 0.0 0.00 0.00 0.00 81 1023.7
20260509020045 41 146 0.0 0.0 0.00 0.00 0.00 80 1023.7
20260509014542 41 147 0.0 0.0 0.00 0.00 0.00 79 1023.6
20260509011553 44 146 0.0 0.0 0.00 0.00 0.00 78 1023.6
20260509010045 44 148 0.0 0.0 0.00 0.00 0.00 77 1023.9
20260509004548 43 138 0.0 0.0 0.00 0.00 0.00 79 1023.8
20260509001537 43 116 0.0 0.0 0.00 0.00 0.00 77 1023.9
20260509000035 43 117 0.0 0.0 0.00 0.00 0.00 76 1023.8
20260508234532 44 116 0.0 0.0 0.00 0.00 0.00 75 1023.8
20260508231529 45 116 0.0 0.0 0.00 0.00 0.00 73 1023.8
20260508230027 46 144 0.0 0.0 0.00 0.00 0.00 72 1023.9
20260508224527 46 144 0.0 0.0 0.00 0.00 0.00 71 1023.8